Zurück zum Katalog

STARLINK-30873

AktivKommunikationVLEO
NORAD 58249·PAYLOAD·🇺🇸 United States

Gestartet Nov 8, 2023 von Cape Canaveral Space Force Station

Loading…

Nächste Überflüge (nächste 24 Stunden)

TLE

AktuellSource: CelesTrak SupGP

Epoche: Sep 15, 2026, 02:51 UTC

1 58249C 23171V   26258.11923611  .00020017  00000+0  72480-3 0  2580
2 58249  43.0024 295.4101 0001832 271.4239 160.2016 15.27578459    17

Verfolge STARLINK-30873 in Echtzeit mit AllMySat

Download on the App Store